Location: Boiro
(42.6475°N, 8.8834°W)
Time: 04:08:14
(UTC+02:00)

DS deb - Visible Passes

Search period start: 01 July 2022 00:00
Search period end: 11 July 2022 00:00
Orbit: 651 x 886 km, 75.8° (Epoch: 30 June)

Date Brightness Start Highest point End Pass type
(mag) Time Alt. Az. Time Alt. Az. Time Alt. Az.
01 Jul ? 04:26:46 10° SE 04:30:35 21° E 04:34:34 10° NE visible
01 Jul ? 06:07:01 10° SW 06:11:57 50° WNW 06:17:22 10° N visible
02 Jul ? 03:52:19 10° ESE 03:54:12 12° E 03:56:08 10° ENE visible
02 Jul ? 05:31:03 17° SSW 05:35:05 84° WNW 05:40:42 10° NNE visible
03 Jul ? 04:55:04 22° S 04:58:22 58° ESE 05:03:50 10° NNE visible
04 Jul ? 04:19:03 21° SE 04:21:46 34° E 04:26:43 10° NE visible
04 Jul ? 05:59:20 12° WSW 06:03:36 33° WNW 06:08:40 10° N visible
05 Jul ? 03:43:00 15° SE 03:45:17 20° E 03:49:13 10° NE visible
05 Jul ? 05:23:17 22° SW 05:26:37 54° WNW 05:32:10 10° N visible
06 Jul ? 03:07:20 10° ESE 03:08:55 11° E 03:10:33 10° ENE visible
06 Jul ? 04:47:13 33° SSW 04:49:46 90° WNW 04:55:28 10° NNE visible
07 Jul ? 04:11:07 36° SSE 04:13:03 54° ESE 04:18:34 10° NNE visible
07 Jul ? 05:51:24 11° WSW 05:55:20 23° WNW 05:59:46 10° N visible
08 Jul ? 03:35:01 28° SE 03:36:28 32° E 03:41:25 10° NE visible
08 Jul ? 05:15:17 21° WSW 05:18:14 36° WNW 05:23:28 10° N visible
09 Jul ? 02:58:52 18° ESE 03:00:01 19° E 03:03:51 10° NE visible
09 Jul ? 04:39:09 35° SW 04:41:16 58° WNW 04:46:56 10° N visible
10 Jul ? 02:22:43 10° E 02:23:39 11° E 02:24:50 10° ENE visible
10 Jul ? 04:02:59 51° S 04:04:26 85° ESE 04:10:13 10° NNE visible
10 Jul ? 05:43:53 10° W 05:47:11 16° NW 05:50:33 10° NNW visible
